| time (UTC) | temp F | wind direction | speed MPH | gust MPH | rain 1hr in | rain 24hr in | rain mn in | humidity % | barometer mb |
| 20260901135450 | 68 | 281 | 1.0 | 2.0 | 0.00 | 0.43 | 0.43 | 99 | 1014.7 |
| 20260901134946 | 69 | 175 | 0.0 | 0.0 | 0.00 | 0.43 | 0.43 | 99 | 1014.8 |
| 20260901134442 | 69 | 229 | 0.0 | 1.0 | 0.00 | 0.43 | 0.43 | 99 | 1014.8 |
| 20260901133936 | 68 | 324 | 0.0 | 1.0 | 0.00 | 0.43 | 0.43 | 99 | 1014.9 |
| 20260901133435 | 69 | 24 | 0.0 | 1.0 | 0.00 | 0.43 | 0.43 | 99 | 1015.0 |
| 20260901132934 | 69 | 44 | 0.0 | 2.0 | 0.00 | 0.43 | 0.43 | 99 | 1014.9 |
| 20260901132429 | 68 | 101 | 0.0 | 1.0 | 0.00 | 0.43 | 0.43 | 99 | 1014.8 |
| 20260901131928 | 68 | 24 | 0.0 | 2.0 | 0.02 | 0.43 | 0.43 | 99 | 1014.9 |
| 20260901131427 | 68 | 49 | 0.0 | 1.0 | 0.02 | 0.43 | 0.43 | 99 | 1014.6 |
| 20260901130923 | 68 | 283 | 1.0 | 2.0 | 0.00 | 0.42 | 0.42 | 99 | 1014.6 |
| 20260901130423 | 68 | 355 | 0.0 | 2.0 | 0.00 | 0.42 | 0.42 | 99 | 1014.9 |
| 20260901125921 | 68 | 44 | 0.0 | 2.0 | 0.02 | 0.42 | 0.42 | 99 | 1014.6 |
| 20260901125421 | 68 | 355 | 0.0 | 2.0 | 0.05 | 0.42 | 0.42 | 99 | 1014.9 |
| 20260901124915 | 68 | 61 | 0.0 | 1.0 | 0.00 | 0.42 | 0.42 | 99 | 1014.9 |
| 20260901124410 | 68 | 121 | 0.0 | 1.0 | 0.00 | 0.42 | 0.42 | 99 | 1015.1 |
| 20260901123905 | 68 | 93 | 0.0 | 1.0 | 0.00 | 0.42 | 0.42 | 99 | 1015.1 |
| 20260901123400 | 68 | 23 | 0.0 | 1.0 | 0.00 | 0.42 | 0.42 | 99 | 1015.1 |
| 20260901122858 | 68 | 355 | 0.0 | 2.0 | 0.02 | 0.42 | 0.42 | 99 | 1014.8 |
| 20260901122353 | 68 | 317 | 0.0 | 2.0 | 0.02 | 0.42 | 0.42 | 99 | 1014.8 |
| 20260901121852 | 68 | 321 | 0.0 | 2.0 | 0.05 | 0.41 | 0.41 | 99 | 1014.9 |
| 20260901121347 | 68 | 317 | 0.0 | 1.0 | 0.05 | 0.41 | 0.41 | 99 | 1015.0 |
| 20260901120842 | 68 | 273 | 0.0 | 1.0 | 0.02 | 0.41 | 0.41 | 99 | 1015.0 |
| 20260901120337 | 68 | 203 | 0.0 | 1.0 | 0.00 | 0.40 | 0.40 | 99 | 1015.0 |
| 20260901115833 | 68 | 312 | 0.0 | 2.0 | 0.00 | 0.40 | 0.40 | 99 | 1014.9 |
| 20260901115327 | 68 | 154 | 0.0 | 1.0 | 0.02 | 0.40 | 0.40 | 99 | 1015.1 |
| 20260901114826 | 68 | 58 | 1.0 | 2.0 | 0.05 | 0.40 | 0.40 | 99 | 1015.0 |
| 20260901114320 | 68 | 118 | 1.0 | 2.0 | 0.09 | 0.40 | 0.40 | 99 | 1014.9 |
| 20260901113819 | 68 | 94 | 0.0 | 1.0 | 0.09 | 0.39 | 0.39 | 99 | 1014.9 |
| 20260901113318 | 68 | 52 | 0.0 | 1.0 | 0.02 | 0.38 | 0.38 | 99 | 1014.9 |
| 20260901112813 | 68 | 125 | 0.0 | 2.0 | 0.00 | 0.37 | 0.37 | 99 | 1014.7 |
| 20260901112313 | 68 | 55 | 0.0 | 2.0 | 0.00 | 0.37 | 0.37 | 99 | 1014.8 |
| 20260901111813 | 68 | 49 | 1.0 | 2.0 | 0.02 | 0.37 | 0.37 | 99 | 1014.7 |
| 20260901111312 | 68 | 264 | 0.0 | 2.0 | 0.07 | 0.37 | 0.37 | 99 | 1014.7 |
| 20260901110811 | 68 | 320 | 2.0 | 3.0 | 0.64 | 0.37 | 0.37 | 99 | 1014.7 |
| 20260901110306 | 68 | 258 | 1.0 | 2.0 | 0.76 | 0.35 | 0.35 | 99 | 1014.6 |
| 20260901105803 | 68 | 55 | 1.0 | 3.0 | 0.57 | 0.25 | 0.25 | 99 | 1014.8 |
| 20260901105305 | 68 | 58 | 0.0 | 2.0 | 0.66 | 0.20 | 0.20 | 99 | 1014.7 |
| 20260901104759 | 68 | 18 | 0.0 | 2.0 | 0.54 | 0.14 | 0.14 | 99 | 1014.5 |
| 20260901104254 | 68 | 272 | 0.0 | 2.0 | 0.40 | 0.09 | 0.09 | 99 | 1014.6 |
| 20260901103749 | 68 | 322 | 1.0 | 2.0 | 0.17 | 0.04 | 0.04 | 99 | 1014.4 |
| 20260901103244 | 68 | 13 | 0.0 | 1.0 | 0.05 | 0.02 | 0.02 | 99 | 1014.7 |
| 20260901102739 | 68 | 333 | 2.0 | 2.0 | 0.00 | 0.02 | 0.02 | 99 | 1014.6 |
| 20260901102239 | 68 | 339 | 0.0 | 2.0 | 0.00 | 0.02 | 0.02 | 99 | 1014.5 |
| 20260901101735 | 68 | 324 | 1.0 | 3.0 | 0.00 | 0.02 | 0.02 | 99 | 1014.5 |
| 20260901101228 | 68 | 302 | 1.0 | 2.0 | 0.02 | 0.02 | 0.02 | 99 | 1014.7 |
| 20260901100722 | 68 | 189 | 0.0 | 1.0 | 0.05 | 0.02 | 0.02 | 99 | 1014.6 |
| 20260901100218 | 68 | 254 | 0.0 | 1.0 | 0.02 | 0.01 | 0.01 | 99 | 1014.6 |
| 20260901095716 | 68 | 126 | 1.0 | 2.0 | 0.02 | 0.01 | 0.01 | 99 | 1014.6 |
| 20260901095214 | 68 | 166 | 0.0 | 2.0 | 0.02 | 0.01 | 0.01 | 99 | 1014.7 |
| 20260901094713 | 68 | 73 | 2.0 | 2.0 | 0.00 | 0.00 | 0.00 | 99 | 1014.6 |
| 20260901094209 | 68 | 254 | 1.0 | 2.0 | 0.00 | 0.00 | 0.00 | 99 | 1014.7 |
| 20260901093703 | 68 | 73 | 0.0 | 2.0 | 0.00 | 0.00 | 0.00 | 99 | 1014.7 |
| 20260901093202 | 67 | 287 | 0.0 | 1.0 | 0.00 | 0.00 | 0.00 | 99 | 1014.6 |
| 20260901092658 | 67 | 102 | 0.0 | 2.0 | 0.00 | 0.00 | 0.00 | 99 | 1014.6 |
| 20260901092155 | 67 | 81 | 0.0 | 1.0 | 0.00 | 0.00 | 0.00 | 99 | 1014.6 |
| 20260901091649 | 67 | 166 | 0.0 | 1.0 | 0.00 | 0.00 | 0.00 | 99 | 1014.9 |
| 20260901091144 | 67 | 62 | 0.0 | 0.0 | 0.00 | 0.00 | 0.00 | 99 | 1014.8 |
| 20260901090639 | 67 | 295 | 0.0 | 1.0 | 0.00 | 0.00 | 0.00 | 99 | 1014.9 |
| 20260901090135 | 67 | 69 | 0.0 | 1.0 | 0.00 | 0.00 | 0.00 | 99 | 1014.9 |
| 20260901085631 | 67 | 115 | 0.0 | 1.0 | 0.00 | 0.00 | 0.00 | 99 | 1014.9 |
| 20260901085126 | 67 | 62 | 0.0 | 1.0 | 0.00 | 0.00 | 0.00 | 99 | 1015.0 |
| 20260901084622 | 67 | 23 | 0.0 | 1.0 | 0.00 | 0.00 | 0.00 | 99 | 1015.1 |
| 20260901084118 | 67 | 27 | 0.0 | 1.0 | 0.00 | 0.00 | 0.00 | 99 | 1015.1 |
| 20260901083617 | 67 | 342 | 0.0 | 3.0 | 0.00 | 0.00 | 0.00 | 99 | 1015.3 |
| 20260901083115 | 67 | 138 | 0.0 | 2.0 | 0.00 | 0.00 | 0.00 | 99 | 1015.2 |
| 20260901082610 | 67 | 194 | 0.0 | 2.0 | 0.00 | 0.00 | 0.00 | 99 | 1015.2 |
| 20260901082106 | 67 | 9 | 0.0 | 2.0 | 0.00 | 0.00 | 0.00 | 99 | 1015.3 |
| 20260901081602 | 67 | 118 | 0.0 | 1.0 | 0.00 | 0.00 | 0.00 | 99 | 1015.3 |
| 20260901081101 | 67 | 44 | 0.0 | 1.0 | 0.00 | 0.00 | 0.00 | 99 | 1015.2 |
| 20260901080556 | 67 | 119 | 0.0 | 1.0 | 0.00 | 0.00 | 0.00 | 99 | 1015.5 |
| 20260901080055 | 67 | 137 | 0.0 | 1.0 | 0.00 | 0.00 | 0.00 | 99 | 1015.3 |
| 20260901075551 | 67 | 76 | 0.0 | 1.0 | 0.00 | 0.00 | 0.00 | 99 | 1015.3 |
| 20260901075050 | 67 | 189 | 0.0 | 1.0 | 0.00 | 0.00 | 0.00 | 99 | 1015.4 |
| 20260901074549 | 67 | 62 | 0.0 | 1.0 | 0.00 | 0.00 | 0.00 | 99 | 1015.4 |
| 20260901074045 | 67 | 73 | 0.0 | 1.0 | 0.00 | 0.00 | 0.00 | 99 | 1015.6 |
| 20260901073542 | 67 | 52 | 0.0 | 1.0 | 0.00 | 0.00 | 0.00 | 99 | 1015.7 |
| 20260901073037 | 67 | 64 | 0.0 | 2.0 | 0.00 | 0.00 | 0.00 | 99 | 1015.5 |
| 20260901072536 | 67 | 247 | 0.0 | 1.0 | 0.00 | 0.00 | 0.00 | 99 | 1015.5 |
| 20260901072032 | 67 | 308 | 0.0 | 2.0 | 0.02 | 0.00 | 0.00 | 99 | 1015.4 |
| 20260901071532 | 67 | 217 | 0.0 | 2.0 | 0.02 | 0.00 | 0.00 | 99 | 1015.4 |
| 20260901071030 | 67 | 355 | 0.0 | 1.0 | 0.00 | 0.00 | 0.00 | 99 | 1015.8 |
| 20260901070526 | 67 | 229 | 0.0 | 1.0 | 0.00 | 0.00 | 0.00 | 99 | 1015.8 |
| 20260901070021 | 67 | 125 | 0.0 | 1.0 | 0.00 | 0.00 | 0.00 | 99 | 1015.7 |
| 20260901065515 | 67 | 49 | 0.0 | 0.0 | 0.00 | 0.00 | 0.00 | 99 | 1015.9 |
| 20260901065010 | 67 | 83 | 0.0 | 1.0 | 0.00 | 0.00 | 0.00 | 99 | 1015.9 |
| 20260901064507 | 67 | 125 | 0.0 | 0.0 | 0.00 | 0.00 | 0.00 | 99 | 1016.0 |
| 20260901064003 | 67 | 125 | 0.0 | 0.0 | 0.00 | 0.00 | 0.00 | 99 | 1015.8 |
| 20260901063500 | 67 | 150 | 0.0 | 0.0 | 0.00 | 0.00 | 0.00 | 99 | 1015.8 |
| 20260901062955 | 67 | 150 | 0.0 | 0.0 | 0.00 | 0.00 | 0.00 | 99 | 1015.8 |
| 20260901062451 | 67 | 125 | 0.0 | 0.0 | 0.00 | 0.00 | 0.00 | 99 | 1015.9 |
| 20260901061947 | 67 | 125 | 0.0 | 2.0 | 0.00 | 0.00 | 0.00 | 99 | 1015.9 |
| 20260901061442 | 67 | 123 | 0.0 | 1.0 | 0.00 | 0.00 | 0.00 | 99 | 1016.1 |
| 20260901060937 | 67 | 176 | 0.0 | 0.0 | 0.00 | 0.00 | 0.00 | 99 | 1016.2 |
| 20260901060432 | 67 | 176 | 0.0 | 0.0 | 0.00 | 0.00 | 0.00 | 99 | 1016.0 |
| 20260901055931 | 67 | 176 | 0.0 | 1.0 | 0.00 | 0.00 | 0.00 | 99 | 1016.1 |
| 20260901055429 | 67 | 166 | 0.0 | 0.0 | 0.00 | 0.00 | 0.00 | 99 | 1016.1 |
| 20260901054924 | 67 | 166 | 0.0 | 0.0 | 0.00 | 0.00 | 0.00 | 99 | 1016.2 |
| 20260901054422 | 67 | 166 | 0.0 | 0.0 | 0.00 | 0.00 | 0.00 | 99 | 1015.9 |
| 20260901053917 | 67 | 204 | 0.0 | 1.0 | 0.00 | 0.00 | 0.00 | 99 | 1016.3 |
| 20260901053413 | 67 | 49 | 0.0 | 0.0 | 0.00 | 0.00 | 0.00 | 99 | 1016.3 |
| 20260901052908 | 67 | 49 | 0.0 | 2.0 | 0.00 | 0.00 | 0.00 | 99 | 1016.5 |
| 20260901052403 | 67 | 137 | 0.0 | 1.0 | 0.00 | 0.00 | 0.00 | 99 | 1016.3 |
| 20260901051856 | 67 | 150 | 0.0 | 2.0 | 0.00 | 0.00 | 0.00 | 99 | 1016.4 |
| 20260901051352 | 67 | 115 | 0.0 | 2.0 | 0.00 | 0.00 | 0.00 | 99 | 1016.4 |
| 20260901050846 | 67 | 144 | 0.0 | 1.0 | 0.00 | 0.00 | 0.00 | 99 | 1016.3 |
| 20260901050342 | 67 | 88 | 0.0 | 2.0 | 0.00 | 0.00 | 0.00 | 99 | 1016.2 |
| 20260901045837 | 67 | 61 | 0.0 | 1.0 | 0.00 | 0.00 | 0.00 | 99 | 1016.4 |
| 20260901045336 | 67 | 213 | 0.0 | 0.0 | 0.00 | 0.00 | 0.00 | 99 | 1016.4 |
| 20260901044832 | 67 | 213 | 0.0 | 1.0 | 0.00 | 0.00 | 0.00 | 98 | 1016.3 |
| 20260901044328 | 67 | 166 | 0.0 | 1.0 | 0.00 | 0.00 | 0.00 | 98 | 1016.6 |
| 20260901043824 | 67 | 162 | 0.0 | 1.0 | 0.00 | 0.00 | 0.00 | 98 | 1016.5 |
| 20260901043320 | 67 | 189 | 0.0 | 2.0 | 0.00 | 0.00 | 0.00 | 98 | 1016.5 |
| 20260901042818 | 67 | 217 | 0.0 | 0.0 | 0.00 | 0.00 | 0.00 | 97 | 1016.5 |
| 20260901042313 | 67 | 217 | 0.0 | 1.0 | 0.00 | 0.00 | 0.00 | 97 | 1016.6 |
| 20260901041809 | 67 | 129 | 0.0 | 1.0 | 0.00 | 0.00 | 0.00 | 97 | 1016.6 |
| 20260901041304 | 67 | 155 | 0.0 | 0.0 | 0.00 | 0.00 | 0.00 | 97 | 1016.6 |
| 20260901040759 | 68 | 155 | 0.0 | 0.0 | 0.00 | 0.00 | 0.00 | 97 | 1016.6 |
| 20260901040258 | 68 | 155 | 0.0 | 1.0 | 0.00 | 0.00 | 0.00 | 97 | 1016.6 |
| 20260901035756 | 68 | 144 | 0.0 | 1.0 | 0.00 | 0.00 | 0.00 | 96 | 1016.5 |
| 20260901035255 | 67 | 160 | 0.0 | 1.0 | 0.00 | 0.00 | 0.00 | 96 | 1016.7 |
| 20260901034754 | 67 | 125 | 0.0 | 1.0 | 0.00 | 0.00 | 0.00 | 96 | 1016.7 |
| 20260901034249 | 67 | 107 | 0.0 | 1.0 | 0.00 | 0.00 | 0.00 | 96 | 1016.6 |
| 20260901033744 | 68 | 134 | 0.0 | 1.0 | 0.00 | 0.00 | 0.00 | 96 | 1016.6 |
| 20260901033243 | 68 | 107 | 0.0 | 1.0 | 0.00 | 0.00 | 0.00 | 96 | 1016.9 |
| 20260901032741 | 68 | 44 | 0.0 | 0.0 | 0.00 | 0.00 | 0.00 | 95 | 1016.7 |
| 20260901032236 | 68 | 44 | 0.0 | 1.0 | 0.00 | 0.00 | 0.00 | 95 | 1016.8 |
| 20260901031726 | 68 | 132 | 0.0 | 0.0 | 0.00 | 0.00 | 0.00 | 95 | 1016.6 |
| 20260901031221 | 68 | 132 | 0.0 | 1.0 | 0.00 | 0.00 | 0.00 | 95 | 1017.0 |
| 20260901030716 | 68 | 115 | 0.0 | 0.0 | 0.00 | 0.00 | 0.00 | 95 | 1017.0 |
| 20260901030211 | 68 | 119 | 0.0 | 1.0 | 0.00 | 0.00 | 0.00 | 95 | 1016.9 |
| 20260901025705 | 68 | 189 | 0.0 | 0.0 | 0.00 | 0.00 | 0.00 | 95 | 1016.8 |
| 20260901025200 | 68 | 189 | 0.0 | 0.0 | 0.00 | 0.00 | 0.00 | 95 | 1016.9 |
| 20260901024700 | 68 | 162 | 0.0 | 1.0 | 0.00 | 0.00 | 0.00 | 94 | 1016.7 |
| 20260901024159 | 68 | 73 | 0.0 | 0.0 | 0.00 | 0.00 | 0.00 | 94 | 1016.9 |
| 20260901023657 | 68 | 73 | 0.0 | 0.0 | 0.00 | 0.00 | 0.00 | 94 | 1016.9 |
| 20260901023152 | 68 | 73 | 0.0 | 0.0 | 0.00 | 0.00 | 0.00 | 93 | 1017.0 |
| 20260901022648 | 68 | 73 | 0.0 | 0.0 | 0.00 | 0.00 | 0.00 | 93 | 1017.1 |
| 20260901022143 | 68 | 73 | 0.0 | 0.0 | 0.00 | 0.00 | 0.00 | 93 | 1016.9 |
| 20260901021638 | 68 | 150 | 0.0 | 0.0 | 0.00 | 0.00 | 0.00 | 93 | 1017.0 |
| 20260901021133 | 68 | 150 | 0.0 | 0.0 | 0.00 | 0.00 | 0.00 | 93 | 1016.8 |
| 20260901020630 | 68 | 150 | 0.0 | 0.0 | 0.00 | 0.00 | 0.00 | 93 | 1016.7 |
| 20260901020124 | 68 | 137 | 0.0 | 1.0 | 0.00 | 0.00 | 0.00 | 93 | 1016.7 |
| 20260901015620 | 68 | 115 | 0.0 | 0.0 | 0.00 | 0.00 | 0.00 | 92 | 1016.8 |
| 20260901015119 | 68 | 115 | 0.0 | 0.0 | 0.00 | 0.00 | 0.00 | 92 | 1016.8 |
| 20260901014614 | 68 | 115 | 0.0 | 1.0 | 0.00 | 0.00 | 0.00 | 92 | 1016.7 |
| 20260901014111 | 68 | 175 | 0.0 | 1.0 | 0.00 | 0.00 | 0.00 | 92 | 1016.8 |
| 20260901013606 | 68 | 107 | 0.0 | 1.0 | 0.00 | 0.00 | 0.00 | 92 | 1016.9 |
| 20260901013101 | 68 | 125 | 0.0 | 1.0 | 0.00 | 0.00 | 0.00 | 92 | 1016.7 |
| 20260901012556 | 68 | 137 | 0.0 | 0.0 | 0.00 | 0.00 | 0.00 | 92 | 1016.9 |
| 20260901012051 | 68 | 107 | 0.0 | 0.0 | 0.00 | 0.00 | 0.00 | 92 | 1017.0 |
| 20260901011548 | 68 | 107 | 0.0 | 1.0 | 0.00 | 0.00 | 0.00 | 91 | 1017.2 |
| 20260901011045 | 68 | 254 | 0.0 | 0.0 | 0.00 | 0.00 | 0.00 | 90 | 1016.9 |
| 20260901010541 | 68 | 83 | 0.0 | 0.0 | 0.00 | 0.00 | 0.00 | 90 | 1017.4 |
| 20260901010039 | 68 | 125 | 0.0 | 0.0 | 0.00 | 0.00 | 0.00 | 90 | 1017.3 |
| 20260901005535 | 68 | 126 | 0.0 | 1.0 | 0.00 | 0.00 | 0.00 | 89 | 1017.1 |
| 20260901005030 | 68 | 132 | 0.0 | 1.0 | 0.00 | 0.00 | 0.00 | 89 | 1017.2 |
| 20260901004529 | 69 | 175 | 0.0 | 1.0 | 0.00 | 0.00 | 0.00 | 89 | 1017.1 |
| 20260901004024 | 69 | 118 | 0.0 | 1.0 | 0.00 | 0.00 | 0.00 | 89 | 1017.1 |
| 20260901003519 | 69 | 122 | 0.0 | 2.0 | 0.00 | 0.00 | 0.00 | 90 | 1016.9 |
| 20260901003017 | 69 | 150 | 0.0 | 0.0 | 0.00 | 0.00 | 0.00 | 88 | 1017.0 |
| 20260901002511 | 69 | 137 | 0.0 | 0.0 | 0.00 | 0.00 | 0.00 | 86 | 1016.9 |
| 20260901002006 | 69 | 137 | 0.0 | 1.0 | 0.00 | 0.00 | 0.00 | 85 | 1016.7 |
| 20260901001501 | 69 | 73 | 0.0 | 1.0 | 0.00 | 0.00 | 0.00 | 86 | 1016.8 |
| 20260901000956 | 69 | 150 | 0.0 | 0.0 | 0.00 | 0.00 | 0.00 | 86 | 1016.8 |
| 20260901000451 | 69 | 150 | 0.0 | 0.0 | 0.00 | 0.00 | 0.00 | 85 | 1016.6 |
| 20260831235950 | 69 | 125 | 0.0 | 1.0 | 0.00 | 0.00 | 0.00 | 83 | 1016.7 |
| 20260831235445 | 69 | 91 | 0.0 | 1.0 | 0.00 | 0.00 | 0.00 | 84 | 1016.8 |
| 20260831234940 | 69 | 125 | 0.0 | 0.0 | 0.00 | 0.00 | 0.00 | 83 | 1016.8 |
| 20260831234435 | 69 | 150 | 0.0 | 0.0 | 0.00 | 0.00 | 0.00 | 83 | 1016.7 |
| 20260831233931 | 69 | 150 | 0.0 | 1.0 | 0.00 | 0.00 | 0.00 | 83 | 1016.8 |
| 20260831233426 | 69 | 204 | 0.0 | 0.0 | 0.00 | 0.00 | 0.00 | 84 | 1016.7 |
| 20260831232922 | 69 | 160 | 0.0 | 1.0 | 0.00 | 0.00 | 0.00 | 87 | 1016.7 |
| 20260831232417 | 69 | 137 | 0.0 | 0.0 | 0.00 | 0.00 | 0.00 | 86 | 1016.9 |
| 20260831231913 | 69 | 150 | 0.0 | 1.0 | 0.00 | 0.00 | 0.00 | 86 | 1016.9 |
| 20260831231409 | 69 | 162 | 0.0 | 1.0 | 0.00 | 0.00 | 0.00 | 86 | 1016.9 |
| 20260831230905 | 70 | 162 | 0.0 | 0.0 | 0.00 | 0.00 | 0.00 | 87 | 1016.9 |
| 20260831230359 | 70 | 175 | 0.0 | 0.0 | 0.00 | 0.00 | 0.00 | 87 | 1017.0 |
| 20260831225854 | 70 | 229 | 0.0 | 0.0 | 0.00 | 0.00 | 0.00 | 85 | 1017.1 |
| 20260831225349 | 70 | 229 | 0.0 | 1.0 | 0.00 | 0.00 | 0.00 | 85 | 1017.2 |
| 20260831224844 | 71 | 254 | 0.0 | 1.0 | 0.00 | 0.00 | 0.00 | 86 | 1017.1 |
| 20260831224339 | 71 | 107 | 0.0 | 2.0 | 0.00 | 0.00 | 0.00 | 83 | 1017.2 |
| 20260831223838 | 71 | 125 | 0.0 | 1.0 | 0.00 | 0.00 | 0.00 | 83 | 1017.2 |
| 20260831223335 | 71 | 114 | 0.0 | 1.0 | 0.00 | 0.00 | 0.00 | 83 | 1017.3 |
| 20260831222831 | 71 | 100 | 0.0 | 2.0 | 0.00 | 0.00 | 0.00 | 83 | 1017.2 |
| 20260831222327 | 71 | 125 | 0.0 | 1.0 | 0.00 | 0.00 | 0.00 | 84 | 1017.2 |
| 20260831221827 | 71 | 281 | 0.0 | 2.0 | 0.00 | 0.00 | 0.00 | 84 | 1017.2 |
| 20260831221323 | 71 | 155 | 0.0 | 0.0 | 0.00 | 0.00 | 0.00 | 86 | 1017.2 |
| 20260831220818 | 71 | 143 | 0.0 | 1.0 | 0.00 | 0.00 | 0.00 | 87 | 1017.4 |
| 20260831220313 | 71 | 122 | 0.0 | 1.0 | 0.00 | 0.00 | 0.00 | 87 | 1017.2 |
| 20260831215808 | 72 | 189 | 0.0 | 1.0 | 0.00 | 0.00 | 0.00 | 86 | 1017.3 |
| 20260831215306 | 72 | 176 | 0.0 | 0.0 | 0.00 | 0.00 | 0.00 | 85 | 1017.1 |
| 20260831214801 | 73 | 176 | 0.0 | 0.0 | 0.00 | 0.00 | 0.00 | 86 | 1017.1 |
| 20260831214258 | 73 | 254 | 0.0 | 2.0 | 0.00 | 0.00 | 0.00 | 84 | 1017.1 |
| 20260831213753 | 73 | 250 | 0.0 | 3.0 | 0.00 | 0.00 | 0.00 | 81 | 1017.1 |
| 20260831213250 | 73 | 297 | 2.0 | 3.0 | 0.00 | 0.00 | 0.00 | 80 | 1017.1 |
| 20260831212749 | 74 | 217 | 0.0 | 0.0 | 0.00 | 0.00 | 0.00 | 81 | 1017.0 |
| 20260831212246 | 75 | 207 | 0.0 | 5.0 | 0.00 | 0.00 | 0.00 | 79 | 1017.0 |
| 20260831211744 | 74 | 26 | 1.0 | 3.0 | 0.00 | 0.00 | 0.00 | 78 | 1016.9 |
| 20260831211235 | 74 | 279 | 3.0 | 6.0 | 0.00 | 0.00 | 0.00 | 77 | 1016.9 |
| 20260831210734 | 75 | 317 | 2.0 | 7.0 | 0.00 | 0.00 | 0.00 | 77 | 1016.8 |
| 20260831210230 | 75 | 287 | 1.0 | 5.0 | 0.00 | 0.00 | 0.00 | 77 | 1016.9 |
| 20260831205729 | 75 | 302 | 3.0 | 8.0 | 0.00 | 0.00 | 0.00 | 77 | 1017.0 |
| 20260831205221 | 76 | 314 | 2.0 | 7.0 | 0.00 | 0.00 | 0.00 | 75 | 1016.9 |
| 20260831204721 | 76 | 272 | 1.0 | 5.0 | 0.00 | 0.00 | 0.00 | 74 | 1016.7 |
| 20260831204220 | 77 | 296 | 2.0 | 4.0 | 0.00 | 0.00 | 0.00 | 74 | 1016.9 |
| 20260831203714 | 78 | 272 | 0.0 | 5.0 | 0.00 | 0.00 | 0.00 | 70 | 1016.9 |
| 20260831203213 | 77 | 290 | 5.0 | 7.0 | 0.00 | 0.00 | 0.00 | 72 | 1016.8 |
| 20260831202712 | 75 | 293 | 1.0 | 4.0 | 0.00 | 0.00 | 0.00 | 77 | 1016.8 |
| 20260831202207 | 75 | 300 | 2.0 | 4.0 | 0.00 | 0.00 | 0.00 | 75 | 1017.1 |
| 20260831201701 | 75 | 258 | 2.0 | 3.0 | 0.00 | 0.00 | 0.00 | 75 | 1017.1 |
| 20260831201200 | 75 | 266 | 2.0 | 3.0 | 0.00 | 0.00 | 0.00 | 78 | 1017.1 |
| 20260831200656 | 76 | 282 | 2.0 | 3.0 | 0.00 | 0.00 | 0.00 | 74 | 1017.3 |
| 20260831200151 | 75 | 293 | 2.0 | 4.0 | 0.00 | 0.00 | 0.00 | 72 | 1017.2 |
| 20260831195646 | 76 | 293 | 3.0 | 4.0 | 0.00 | 0.00 | 0.00 | 71 | 1017.0 |
| 20260831195142 | 76 | 251 | 2.0 | 5.0 | 0.00 | 0.00 | 0.00 | 74 | 1017.1 |
| 20260831194636 | 76 | 247 | 0.0 | 4.0 | 0.00 | 0.00 | 0.00 | 74 | 1017.1 |
| 20260831194131 | 76 | 281 | 1.0 | 6.0 | 0.00 | 0.00 | 0.00 | 74 | 1017.0 |
| 20260831193626 | 78 | 314 | 4.0 | 6.0 | 0.00 | 0.00 | 0.00 | 66 | 1017.2 |
| 20260831193121 | 77 | 270 | 2.0 | 5.0 | 0.00 | 0.00 | 0.00 | 69 | 1017.2 |
| 20260831192616 | 76 | 280 | 0.0 | 5.0 | 0.00 | 0.00 | 0.00 | 74 | 1017.3 |
| 20260831192111 | 76 | 327 | 3.0 | 4.0 | 0.00 | 0.00 | 0.00 | 71 | 1017.4 |
| 20260831191602 | 76 | 9 | 0.0 | 4.0 | 0.00 | 0.00 | 0.00 | 71 | 1017.5 |
| 20260831191057 | 76 | 17 | 2.0 | 3.0 | 0.00 | 0.00 | 0.00 | 72 | 1017.5 |
| 20260831190553 | 76 | 291 | 3.0 | 5.0 | 0.00 | 0.00 | 0.00 | 70 | 1017.6 |
| 20260831190051 | 77 | 311 | 0.0 | 3.0 | 0.00 | 0.00 | 0.00 | 70 | 1017.8 |
| 20260831185547 | 77 | 275 | 3.0 | 3.0 | 0.00 | 0.00 | 0.00 | 66 | 1017.6 |
| 20260831185043 | 77 | 41 | 0.0 | 4.0 | 0.00 | 0.00 | 0.00 | 69 | 1017.6 |
| 20260831184542 | 77 | 280 | 2.0 | 3.0 | 0.00 | 0.00 | 0.00 | 65 | 1018.0 |
| 20260831184038 | 78 | 331 | 2.0 | 4.0 | 0.00 | 0.00 | 0.00 | 65 | 1018.1 |
| 20260831183536 | 77 | 262 | 0.0 | 4.0 | 0.00 | 0.00 | 0.00 | 65 | 1017.8 |
| 20260831183031 | 77 | 310 | 2.0 | 5.0 | 0.00 | 0.00 | 0.00 | 68 | 1017.7 |
| 20260831182525 | 77 | 325 | 3.0 | 5.0 | 0.00 | 0.00 | 0.00 | 66 | 1017.9 |
| 20260831182021 | 77 | 231 | 0.0 | 4.0 | 0.00 | 0.00 | 0.00 | 68 | 1017.7 |
| 20260831181516 | 76 | 270 | 1.0 | 2.0 | 0.00 | 0.00 | 0.00 | 71 | 1017.8 |
| 20260831181015 | 75 | 234 | 1.0 | 5.0 | 0.00 | 0.00 | 0.00 | 66 | 1018.0 |
| 20260831180515 | 76 | 257 | 1.0 | 3.0 | 0.00 | 0.00 | 0.00 | 68 | 1017.9 |
| 20260831180010 | 77 | 340 | 3.0 | 5.0 | 0.00 | 0.00 | 0.00 | 65 | 1018.0 |
| 20260831175506 | 76 | 357 | 1.0 | 3.0 | 0.00 | 0.00 | 0.00 | 68 | 1018.1 |
| 20260831175002 | 77 | 338 | 3.0 | 7.0 | 0.00 | 0.00 | 0.00 | 67 | 1018.2 |
| 20260831174457 | 76 | 189 | 0.0 | 3.0 | 0.00 | 0.00 | 0.00 | 66 | 1018.3 |
| 20260831173956 | 76 | 155 | 0.0 | 2.0 | 0.00 | 0.00 | 0.00 | 66 | 1018.6 |
| 20260831173455 | 78 | 4 | 3.0 | 4.0 | 0.00 | 0.00 | 0.00 | 64 | 1018.3 |
| 20260831172951 | 77 | 212 | 2.0 | 5.0 | 0.00 | 0.00 | 0.00 | 71 | 1018.5 |
| 20260831172446 | 78 | 312 | 5.0 | 7.0 | 0.00 | 0.00 | 0.00 | 62 | 1018.2 |
| 20260831171941 | 77 | 333 | 0.0 | 5.0 | 0.00 | 0.00 | 0.00 | 64 | 1018.6 |
| 20260831171432 | 77 | 275 | 2.0 | 7.0 | 0.00 | 0.00 | 0.00 | 65 | 1018.6 |
| 20260831170928 | 77 | 171 | 0.0 | 3.0 | 0.00 | 0.00 | 0.00 | 63 | 1018.5 |
| 20260831170424 | 78 | 37 | 2.0 | 3.0 | 0.00 | 0.00 | 0.00 | 60 | 1018.6 |
| 20260831165921 | 76 | 284 | 0.0 | 6.0 | 0.00 | 0.00 | 0.00 | 61 | 1018.6 |
| 20260831165416 | 77 | 30 | 2.0 | 3.0 | 0.00 | 0.00 | 0.00 | 60 | 1018.8 |
| 20260831164913 | 75 | 348 | 0.0 | 4.0 | 0.00 | 0.00 | 0.00 | 64 | 1018.8 |
| 20260831164409 | 74 | 175 | 0.0 | 2.0 | 0.00 | 0.00 | 0.00 | 73 | 1018.9 |
| 20260831163904 | 76 | 157 | 1.0 | 5.0 | 0.00 | 0.00 | 0.00 | 68 | 1018.8 |
| 20260831163359 | 76 | 21 | 3.0 | 5.0 | 0.00 | 0.00 | 0.00 | 63 | 1019.0 |
| 20260831162858 | 75 | 126 | 3.0 | 4.0 | 0.00 | 0.00 | 0.00 | 65 | 1019.0 |
| 20260831162353 | 77 | 131 | 2.0 | 4.0 | 0.00 | 0.00 | 0.00 | 67 | 1019.2 |
| 20260831161852 | 77 | 0 | 2.0 | 3.0 | 0.00 | 0.00 | 0.00 | 70 | 1019.2 |
| 20260831161348 | 76 | 295 | 2.0 | 4.0 | 0.00 | 0.00 | 0.00 | 64 | 1018.9 |
| 20260831160843 | 75 | 280 | 3.0 | 4.0 | 0.00 | 0.00 | 0.00 | 66 | 1019.1 |
| 20260831160338 | 75 | 174 | 2.0 | 2.0 | 0.00 | 0.00 | 0.00 | 69 | 1019.1 |
| 20260831155833 | 75 | 343 | 2.0 | 4.0 | 0.00 | 0.00 | 0.00 | 68 | 1019.4 |
| 20260831155332 | 75 | 100 | 0.0 | 2.0 | 0.00 | 0.00 | 0.00 | 64 | 1019.1 |
| 20260831154828 | 75 | 112 | 0.0 | 4.0 | 0.00 | 0.00 | 0.00 | 63 | 1019.3 |
| 20260831154325 | 74 | 282 | 4.0 | 7.0 | 0.00 | 0.00 | 0.00 | 66 | 1019.2 |
| 20260831153823 | 75 | 283 | 2.0 | 7.0 | 0.00 | 0.00 | 0.00 | 76 | 1019.3 |
| 20260831153319 | 76 | 103 | 2.0 | 5.0 | 0.00 | 0.00 | 0.00 | 69 | 1019.3 |
| 20260831152815 | 75 | 315 | 5.0 | 5.0 | 0.00 | 0.00 | 0.00 | 72 | 1019.3 |
| 20260831152311 | 75 | 343 | 3.0 | 5.0 | 0.00 | 0.00 | 0.00 | 70 | 1019.3 |
| 20260831151806 | 75 | 295 | 0.0 | 5.0 | 0.00 | 0.00 | 0.00 | 77 | 1019.1 |
| 20260831151305 | 75 | 272 | 2.0 | 7.0 | 0.00 | 0.00 | 0.00 | 72 | 1019.0 |
| 20260831150800 | 75 | 12 | 1.0 | 3.0 | 0.00 | 0.00 | 0.00 | 71 | 1019.2 |
| 20260831150255 | 75 | 99 | 3.0 | 5.0 | 0.00 | 0.00 | 0.00 | 72 | 1019.2 |
| 20260831145754 | 75 | 81 | 6.0 | 7.0 | 0.00 | 0.00 | 0.00 | 71 | 1019.1 |
| 20260831145251 | 75 | 332 | 2.0 | 5.0 | 0.00 | 0.00 | 0.00 | 73 | 1019.2 |
| 20260831144746 | 75 | 77 | 2.0 | 3.0 | 0.00 | 0.00 | 0.00 | 72 | 1019.4 |
| 20260831144243 | 75 | 73 | 3.0 | 7.0 | 0.00 | 0.00 | 0.00 | 72 | 1019.4 |
| 20260831143742 | 74 | 299 | 3.0 | 7.0 | 0.00 | 0.00 | 0.00 | 75 | 1019.4 |
| 20260831143238 | 74 | 286 | 2.0 | 4.0 | 0.00 | 0.00 | 0.00 | 75 | 1019.3 |
| 20260831142733 | 73 | 88 | 0.0 | 3.0 | 0.00 | 0.00 | 0.00 | 83 | 1019.2 |
| 20260831142228 | 74 | 318 | 3.0 | 5.0 | 0.00 | 0.00 | 0.00 | 75 | 1019.3 |
| 20260831141727 | 72 | 284 | 3.0 | 6.0 | 0.00 | 0.00 | 0.00 | 78 | 1019.0 |
| 20260831141223 | 73 | 298 | 1.0 | 4.0 | 0.00 | 0.00 | 0.00 | 80 | 1019.2 |
| 20260831140722 | 72 | 66 | 0.0 | 4.0 | 0.00 | 0.00 | 0.00 | 78 | 1019.0 |
| 20260831140217 | 73 | 260 | 0.0 | 5.0 | 0.00 | 0.00 | 0.00 | 77 | 1019.2 |